Back to Top

Language: 

My Weather Underground Personal Weather Station Historical Data with Graphs...

Delerius Weather Station Historical Data
Daily Summary for May 13, 2017 Units:  Metric    English   Both
« Previous Day
Next Day »
Daily Weekly Monthly Yearly Custom
  High: Low: Average:
Temperature: 16.4 °C 11.6 °C 13.5 °C
Dew Point: 10.9 °C 5.9 °C 8.8 °C
Humidity: 91 % 51 % 75 %
Wind Speed: 20.9 km/h 3.2 km/h 13.2 km/h
Wind Gust: 38.6 km/h - -
Wind:- - SSW
Pressure: 1008.4 hPa 997.5 hPa -
Precipitation: 0 mm    
Historical Graphs
 
 
Tabular Data for May 13, 2017
Time Temperature Dew Point Pressure Wind Wind Speed Wind Gust Humidity Rainfall Rate (Hourly) solar Conditions
00:04 13.6 °C 10.9 °C 997.5 hPa SSW 9.7 km/h 17.7 km/h 84 % 0 mm 0 W/m2
00:09 13.6 °C 10.9 °C 997.5 hPa SSW 9.7 km/h 17.7 km/h 84 % 0 mm 0 W/m2
00:14 13.6 °C 10.9 °C 997.5 hPa SSW 8 km/h 17.7 km/h 84 % 0 mm 0 W/m2
00:19 13.5 °C 10.8 °C 997.5 hPa SSW 6.4 km/h 17.7 km/h 84 % 0 mm 0 W/m2
00:24 13.4 °C 10.8 °C 997.9 hPa South 9.7 km/h 19.3 km/h 84 % 0 mm 0 W/m2
00:29 13.3 °C 10.7 °C 997.5 hPa South 9.7 km/h 22.5 km/h 84 % 0 mm 0 W/m2
00:34 13.2 °C 10.6 °C 997.5 hPa South 9.7 km/h 22.5 km/h 84 % 0 mm 0 W/m2
00:39 13.1 °C 10.4 °C 997.9 hPa South 9.7 km/h 22.5 km/h 84 % 0 mm 0 W/m2
00:44 13 °C 10.3 °C 997.9 hPa South 8 km/h 16.1 km/h 84 % 0 mm 0 W/m2
00:49 12.9 °C 10.4 °C 997.9 hPa South 8 km/h 19.3 km/h 85 % 0 mm 0 W/m2
00:54 12.9 °C 10.4 °C 997.5 hPa South 6.4 km/h 19.3 km/h 85 % 0 mm 0 W/m2
00:59 12.8 °C 10.3 °C 997.9 hPa SSE 4.8 km/h 11.3 km/h 85 % 0 mm 0 W/m2
01:05 12.8 °C 10.3 °C 997.5 hPa SSE 4.8 km/h 14.5 km/h 85 % 0 mm 0 W/m2
01:10 12.8 °C 10.5 °C 997.9 hPa SSE 6.4 km/h 17.7 km/h 86 % 0 mm 0 W/m2
01:15 12.9 °C 10.6 °C 997.9 hPa South 9.7 km/h 20.9 km/h 86 % 0 mm 0 W/m2
01:20 12.9 °C 10.6 °C 997.9 hPa South 11.3 km/h 20.9 km/h 86 % 0 mm 0 W/m2
01:25 12.9 °C 10.6 °C 997.9 hPa South 11.3 km/h 29 km/h 86 % 0 mm 0 W/m2
01:30 12.8 °C 10.7 °C 997.9 hPa South 12.9 km/h 37 km/h 87 % 0 mm 0 W/m2
01:35 12.7 °C 10.6 °C 997.5 hPa SSW 14.5 km/h 37 km/h 87 % 0 mm 0 W/m2
01:40 12.6 °C 10.7 °C 997.5 hPa South 14.5 km/h 25.7 km/h 88 % 0 mm 0 W/m2
01:45 12.4 °C 10.6 °C 997.5 hPa South 12.9 km/h 24.1 km/h 89 % 0 mm 0 W/m2
01:50 12.3 °C 10.7 °C 997.9 hPa South 14.5 km/h 25.7 km/h 90 % 0 mm 0 W/m2
01:55 12.3 °C 10.9 °C 997.9 hPa South 14.5 km/h 25.7 km/h 91 % 0 mm 0 W/m2
02:00 12.2 °C 10.8 °C 997.9 hPa South 12.9 km/h 20.9 km/h 91 % 0 mm 0 W/m2
02:05 12.2 °C 10.8 °C 997.9 hPa South 12.9 km/h 22.5 km/h 91 % 0 mm 0 W/m2
02:10 12.2 °C 10.8 °C 997.9 hPa SSW 12.9 km/h 24.1 km/h 91 % 0 mm 0 W/m2
02:15 12.2 °C 10.8 °C 997.9 hPa SSW 11.3 km/h 24.1 km/h 91 % 0 mm 0 W/m2
02:20 12.2 °C 10.8 °C 998.2 hPa SSW 11.3 km/h 20.9 km/h 91 % 0 mm 0 W/m2
02:25 12.2 °C 10.8 °C 998.2 hPa SSW 11.3 km/h 19.3 km/h 91 % 0 mm 0 W/m2
02:30 12.2 °C 10.8 °C 998.2 hPa SSW 9.7 km/h 19.3 km/h 91 % 0 mm 0 W/m2
02:35 12.2 °C 10.8 °C 998.2 hPa SSW 11.3 km/h 19.3 km/h 91 % 0 mm 0 W/m2
02:40 12.2 °C 10.6 °C 998.2 hPa SSW 11.3 km/h 24.1 km/h 90 % 0 mm 0 W/m2
02:45 12.2 °C 10.6 °C 998.2 hPa SSW 12.9 km/h 24.1 km/h 90 % 0 mm 0 W/m2
02:50 12.2 °C 10.6 °C 998.2 hPa SSW 14.5 km/h 22.5 km/h 90 % 0 mm 0 W/m2
02:55 12.2 °C 10.4 °C 998.2 hPa SSW 14.5 km/h 22.5 km/h 89 % 0 mm 0 W/m2
03:00 12.2 °C 10.4 °C 998.2 hPa SSW 12.9 km/h 22.5 km/h 89 % 0 mm 0 W/m2
03:05 12.2 °C 10.4 °C 998.2 hPa SSW 12.9 km/h 24.1 km/h 89 % 0 mm 0 W/m2
03:10 12.2 °C 10.4 °C 998.2 hPa SSW 12.9 km/h 24.1 km/h 89 % 0 mm 0 W/m2
03:15 12.2 °C 10.4 °C 998.2 hPa SSW 14.5 km/h 24.1 km/h 89 % 0 mm 0 W/m2
03:20 12.1 °C 10.3 °C 998.5 hPa SSW 12.9 km/h 22.5 km/h 89 % 0 mm 0 W/m2
03:26 12 °C 10.2 °C 998.5 hPa SSW 14.5 km/h 25.7 km/h 89 % 0 mm 0 W/m2
03:31 12 °C 10.2 °C 998.5 hPa SSW 16.1 km/h 32.2 km/h 89 % 0 mm 0 W/m2
03:36 12 °C 10.1 °C 998.5 hPa SSW 14.5 km/h 32.2 km/h 88 % 0 mm 0 W/m2
03:41 12 °C 10.1 °C 998.5 hPa SSW 16.1 km/h 30.6 km/h 88 % 0 mm 0 W/m2
03:46 12 °C 10.1 °C 998.5 hPa SSW 16.1 km/h 30.6 km/h 88 % 0 mm 0 W/m2
03:51 12 °C 10.1 °C 998.5 hPa SSW 14.5 km/h 24.1 km/h 88 % 0 mm 0 W/m2
03:56 12 °C 9.9 °C 998.5 hPa SSW 14.5 km/h 22.5 km/h 87 % 0 mm 0 W/m2
04:01 12.1 °C 10 °C 998.5 hPa SSW 16.1 km/h 29 km/h 87 % 0 mm 0 W/m2
04:06 12.1 °C 10 °C 998.5 hPa SSW 17.7 km/h 30.6 km/h 87 % 0 mm 0 W/m2
04:11 12 °C 9.9 °C 998.5 hPa South 14.5 km/h 30.6 km/h 87 % 0 mm 0 W/m2
04:16 11.9 °C 9.8 °C 998.9 hPa SSW 14.5 km/h 30.6 km/h 87 % 0 mm 0 W/m2
04:21 11.9 °C 9.8 °C 998.9 hPa SSW 14.5 km/h 30.6 km/h 87 % 0 mm 0 W/m2
04:26 11.8 °C 9.7 °C 998.9 hPa SSW 14.5 km/h 29 km/h 87 % 0 mm 0 W/m2
04:31 11.8 °C 9.7 °C 998.9 hPa SSW 14.5 km/h 29 km/h 87 % 0 mm 0 W/m2
04:36 11.8 °C 9.7 °C 998.9 hPa SSW 14.5 km/h 32.2 km/h 87 % 0 mm 0 W/m2
04:41 11.8 °C 9.7 °C 998.9 hPa SSW 16.1 km/h 32.2 km/h 87 % 0 mm 0 W/m2
04:46 11.8 °C 9.7 °C 998.9 hPa SSW 16.1 km/h 30.6 km/h 87 % 0 mm 0 W/m2
04:51 11.7 °C 9.8 °C 998.9 hPa SSW 14.5 km/h 29 km/h 88 % 0 mm 0 W/m2
04:56 11.7 °C 9.8 °C 998.9 hPa SSW 12.9 km/h 24.1 km/h 88 % 0 mm 0 W/m2
05:01 11.6 °C 9.7 °C 998.9 hPa SSW 12.9 km/h 24.1 km/h 88 % 0 mm 0 W/m2
05:06 11.6 °C 9.7 °C 998.9 hPa SSW 12.9 km/h 24.1 km/h 88 % 0 mm 0 W/m2
05:11 11.6 °C 9.7 °C 998.9 hPa SSW 12.9 km/h 30.6 km/h 88 % 0 mm 0 W/m2
05:16 11.6 °C 9.7 °C 998.9 hPa SSW 11.3 km/h 30.6 km/h 88 % 0 mm 5 W/m2
05:22 11.6 °C 9.7 °C 998.9 hPa SSW 11.3 km/h 29 km/h 88 % 0 mm 5 W/m2
05:27 11.6 °C 9.7 °C 999.2 hPa SSW 12.9 km/h 29 km/h 88 % 0 mm 5 W/m2
05:32 11.6 °C 9.7 °C 999.2 hPa SSW 12.9 km/h 25.7 km/h 88 % 0 mm 7 W/m2
05:37 11.6 °C 9.7 °C 999.2 hPa SSW 11.3 km/h 29 km/h 88 % 0 mm 11 W/m2
05:42 11.6 °C 9.5 °C 999.2 hPa SSW 11.3 km/h 29 km/h 87 % 0 mm 9 W/m2
05:47 11.6 °C 9.5 °C 999.2 hPa SSW 11.3 km/h 29 km/h 87 % 0 mm 9 W/m2
05:52 11.7 °C 9.6 °C 999.2 hPa SSW 11.3 km/h 29 km/h 87 % 0 mm 9 W/m2
05:57 11.7 °C 9.6 °C 999.2 hPa South 11.3 km/h 20.9 km/h 87 % 0 mm 12 W/m2
06:02 11.7 °C 9.4 °C 999.2 hPa SSW 11.3 km/h 30.6 km/h 86 % 0 mm 16 W/m2
06:07 11.8 °C 9.6 °C 999.5 hPa SSW 12.9 km/h 30.6 km/h 86 % 0 mm 11 W/m2
06:12 11.8 °C 9.6 °C 999.5 hPa SSW 14.5 km/h 30.6 km/h 86 % 0 mm 18 W/m2
06:17 11.8 °C 9.6 °C 999.5 hPa SSW 14.5 km/h 29 km/h 86 % 0 mm 37 W/m2
06:22 11.8 °C 9.6 °C 999.5 hPa SSW 11.3 km/h 29 km/h 86 % 0 mm 30 W/m2
06:27 11.8 °C 9.6 °C 999.5 hPa SSW 11.3 km/h 25.7 km/h 86 % 0 mm 39 W/m2
06:32 11.8 °C 9.6 °C 999.5 hPa SSW 14.5 km/h 25.7 km/h 86 % 0 mm 46 W/m2
06:37 11.8 °C 9.6 °C 999.5 hPa SSW 14.5 km/h 25.7 km/h 86 % 0 mm 60 W/m2
06:42 11.8 °C 9.3 °C 999.9 hPa SSW 14.5 km/h 30.6 km/h 85 % 0 mm 62 W/m2
06:47 11.9 °C 9.4 °C 999.9 hPa SSW 17.7 km/h 38.6 km/h 85 % 0 mm 58 W/m2
06:52 11.9 °C 9.4 °C 999.9 hPa SSW 16.1 km/h 38.6 km/h 85 % 0 mm 62 W/m2
06:57 11.9 °C 9.4 °C 999.9 hPa SSW 14.5 km/h 29 km/h 85 % 0 mm 69 W/m2
07:02 11.9 °C 9.4 °C 1000.2 hPa SSW 16.1 km/h 30.6 km/h 85 % 0 mm 90 W/m2
07:07 11.9 °C 9.4 °C 1000.2 hPa SSW 17.7 km/h 33.8 km/h 85 % 0 mm 102 W/m2
07:10 12 °C 9.4 °C 1000.2 hPa SSW 17.7 km/h 33.8 km/h 84 % 0 mm 91 W/m2
07:15 12.1 °C 9.5 °C 1000.6 hPa SSW 16.1 km/h 38.6 km/h 84 % 0 mm 125 W/m2
07:20 12.2 °C 9.6 °C 1000.6 hPa SSW 17.7 km/h 38.6 km/h 84 % 0 mm 125 W/m2
07:25 12.2 °C 9.6 °C 1000.6 hPa SSW 16.1 km/h 30.6 km/h 84 % 0 mm 155 W/m2
07:30 12.3 °C 9.5 °C 1000.6 hPa SW 16.1 km/h 33.8 km/h 83 % 0 mm 174 W/m2
07:35 12.4 °C 9.6 °C 1000.6 hPa SW 14.5 km/h 33.8 km/h 83 % 0 mm 142 W/m2
07:40 12.5 °C 9.5 °C 1000.9 hPa SSW 14.5 km/h 32.2 km/h 82 % 0 mm 190 W/m2
07:45 12.5 °C 9.5 °C 1000.9 hPa SW 16.1 km/h 35.4 km/h 82 % 0 mm 176 W/m2
07:50 12.6 °C 9.6 °C 1000.9 hPa SW 14.5 km/h 35.4 km/h 82 % 0 mm 211 W/m2
07:55 12.8 °C 9.6 °C 1000.9 hPa SW 14.5 km/h 29 km/h 81 % 0 mm 176 W/m2
08:00 12.8 °C 9.6 °C 1000.9 hPa WSW 14.5 km/h 29 km/h 81 % 0 mm 148 W/m2
08:05 12.9 °C 9.6 °C 1001.2 hPa WSW 16.1 km/h 25.7 km/h 80 % 0 mm 93 W/m2
08:10 12.8 °C 9.4 °C 1001.2 hPa SW 16.1 km/h 25.7 km/h 80 % 0 mm 121 W/m2
08:15 12.8 °C 9.4 °C 1001.2 hPa SW 12.9 km/h 22.5 km/h 80 % 0 mm 176 W/m2
08:20 12.8 °C 9.6 °C 1001.2 hPa SW 12.9 km/h 24.1 km/h 81 % 0 mm 148 W/m2
08:25 12.9 °C 9.7 °C 1001.2 hPa SW 12.9 km/h 24.1 km/h 81 % 0 mm 178 W/m2
08:30 12.9 °C 9.7 °C 1001.6 hPa SW 14.5 km/h 22.5 km/h 81 % 0 mm 213 W/m2
08:33 13 °C 9.6 °C 1001.6 hPa SW 14.5 km/h 25.7 km/h 80 % 0 mm 192 W/m2
08:38 13.2 °C 9.8 °C 1001.6 hPa SW 14.5 km/h 25.7 km/h 80 % 0 mm 183 W/m2
08:43 13.4 °C 10 °C 1001.6 hPa SW 14.5 km/h 29 km/h 80 % 0 mm 566 W/m2
08:48 13.7 °C 10.1 °C 1001.6 hPa SW 16.1 km/h 30.6 km/h 79 % 0 mm 608 W/m2
08:53 14 °C 10.2 °C 1001.6 hPa SW 14.5 km/h 30.6 km/h 78 % 0 mm 411 W/m2
08:58 14.3 °C 10.3 °C 1001.6 hPa SW 16.1 km/h 29 km/h 77 % 0 mm 673 W/m2
09:03 14.5 °C 10.3 °C 1001.6 hPa SW 16.1 km/h 25.7 km/h 76 % 0 mm 645 W/m2
09:08 14.6 °C 10.2 °C 1001.9 hPa SW 19.3 km/h 35.4 km/h 75 % 0 mm 710 W/m2
09:13 14.6 °C 10.2 °C 1001.9 hPa SW 20.9 km/h 35.4 km/h 75 % 0 mm 153 W/m2
09:18 14.2 °C 9.8 °C 1001.9 hPa SW 20.9 km/h 38.6 km/h 75 % 0 mm 125 W/m2
09:23 13.9 °C 9.9 °C 1002.3 hPa SW 20.9 km/h 38.6 km/h 77 % 0 mm 216 W/m2
09:28 13.8 °C 10.1 °C 1002.3 hPa SW 17.7 km/h 35.4 km/h 78 % 0 mm 174 W/m2
09:33 13.6 °C 9.8 °C 1002.3 hPa SSW 16.1 km/h 29 km/h 78 % 0 mm 149 W/m2
09:38 13.5 °C 9.9 °C 1002.6 hPa SSW 16.1 km/h 29 km/h 79 % 0 mm 227 W/m2
09:43 13.4 °C 9.8 °C 1002.6 hPa SW 16.1 km/h 30.6 km/h 79 % 0 mm 220 W/m2
09:44 13.4 °C 9.8 °C 1002.6 hPa SW 16.1 km/h 30.6 km/h 79 % 0 mm 229 W/m2
09:49 13.4 °C 9.8 °C 1002.6 hPa SW 16.1 km/h 30.6 km/h 79 % 0 mm 250 W/m2
09:54 13.3 °C 9.6 °C 1002.6 hPa SW 19.3 km/h 33.8 km/h 78 % 0 mm 223 W/m2
09:59 13.4 °C 9.8 °C 1002.6 hPa SW 19.3 km/h 33.8 km/h 79 % 0 mm 234 W/m2
10:04 13.5 °C 9.7 °C 1002.9 hPa SW 17.7 km/h 29 km/h 78 % 0 mm 334 W/m2
10:09 13.6 °C 9.8 °C 1002.9 hPa SW 16.1 km/h 29 km/h 78 % 0 mm 181 W/m2
10:14 13.6 °C 9.8 °C 1002.9 hPa SW 16.1 km/h 33.8 km/h 78 % 0 mm 116 W/m2
10:19 13.4 °C 9.7 °C 1002.9 hPa SW 17.7 km/h 33.8 km/h 78 % 0 mm 118 W/m2
10:24 13.3 °C 9.7 °C 1003.3 hPa SW 16.1 km/h 32.2 km/h 79 % 0 mm 190 W/m2
10:29 13.3 °C 9.7 °C 1003.3 hPa SW 11.3 km/h 22.5 km/h 79 % 0 mm 221 W/m2
10:35 13.3 °C 9.6 °C 1003.3 hPa SSW 11.3 km/h 19.3 km/h 78 % 0 mm 174 W/m2
10:40 13.4 °C 9.7 °C 1003.3 hPa SSW 14.5 km/h 24.1 km/h 78 % 0 mm 127 W/m2
10:45 13.4 °C 9.8 °C 1003.3 hPa SSW 12.9 km/h 24.1 km/h 79 % 0 mm 113 W/m2
10:50 13.4 °C 9.7 °C 1003.6 hPa SSW 12.9 km/h 24.1 km/h 78 % 0 mm 90 W/m2
10:55 13.3 °C 9.6 °C 1003.6 hPa SSW 14.5 km/h 29 km/h 78 % 0 mm 98 W/m2
11:00 13.3 °C 9.6 °C 1003.6 hPa SSW 16.1 km/h 29 km/h 78 % 0 mm 104 W/m2
11:05 13.3 °C 9.7 °C 1003.6 hPa SSW 14.5 km/h 25.7 km/h 79 % 0 mm 171 W/m2
11:10 13.3 °C 9.7 °C 1003.6 hPa SSW 12.9 km/h 25.7 km/h 79 % 0 mm 148 W/m2
11:15 13.3 °C 9.7 °C 1003.9 hPa SSW 12.9 km/h 24.1 km/h 79 % 0 mm 135 W/m2
11:20 13.3 °C 9.7 °C 1003.9 hPa SSW 14.5 km/h 24.1 km/h 79 % 0 mm 88 W/m2
11:25 13.3 °C 9.9 °C 1003.9 hPa SSW 14.5 km/h 25.7 km/h 80 % 0 mm 91 W/m2
11:30 13.1 °C 9.7 °C 1004.3 hPa SSW 16.1 km/h 25.7 km/h 80 % 0 mm 116 W/m2
11:35 12.9 °C 10.1 °C 1004.3 hPa SSW 17.7 km/h 35.4 km/h 83 % 0 mm 141 W/m2
11:40 12.7 °C 10.4 °C 1004.3 hPa SW 16.1 km/h 35.4 km/h 86 % 0 mm 162 W/m2
11:45 12.4 °C 10.1 °C 1004.3 hPa SW 12.9 km/h 22.5 km/h 86 % 0 mm 200 W/m2
11:50 12.4 °C 10.3 °C 1004.3 hPa SW 12.9 km/h 19.3 km/h 87 % 0 mm 197 W/m2
11:55 12.4 °C 10.4 °C 1004.3 hPa SW 11.3 km/h 19.3 km/h 88 % 0 mm 221 W/m2
12:00 12.6 °C 10.3 °C 1004.3 hPa SSW 11.3 km/h 19.3 km/h 86 % 0 mm 253 W/m2
12:05 12.7 °C 10.2 °C 1004.3 hPa SSW 12.9 km/h 19.3 km/h 85 % 0 mm 283 W/m2
12:10 12.9 °C 10.3 °C 1004.3 hPa SSW 12.9 km/h 20.9 km/h 84 % 0 mm 341 W/m2
12:15 13.2 °C 10.4 °C 1004.3 hPa SSW 11.3 km/h 20.9 km/h 83 % 0 mm 401 W/m2
12:20 13.6 °C 10.6 °C 1004.3 hPa SSW 11.3 km/h 19.3 km/h 82 % 0 mm 700 W/m2
12:25 13.9 °C 10.3 °C 1004.3 hPa SSW 12.9 km/h 24.1 km/h 79 % 0 mm 747 W/m2
12:30 14.4 °C 10.2 °C 1004.3 hPa SSW 14.5 km/h 24.1 km/h 76 % 0 mm 608 W/m2
12:35 14.8 °C 10 °C 1004.3 hPa SSW 12.9 km/h 24.1 km/h 73 % 0 mm 705 W/m2
12:40 15.1 °C 9.9 °C 1004.3 hPa SSW 12.9 km/h 24.1 km/h 71 % 0 mm 439 W/m2
12:45 15 °C 9.6 °C 1004.6 hPa SSW 12.9 km/h 25.7 km/h 70 % 0 mm 139 W/m2
12:50 14.9 °C 9.5 °C 1004.6 hPa SW 14.5 km/h 24.1 km/h 70 % 0 mm 95 W/m2
12:55 14.7 °C 9.1 °C 1004.6 hPa SW 16.1 km/h 25.7 km/h 69 % 0 mm 100 W/m2
13:00 14.6 °C 9 °C 1004.6 hPa SW 14.5 km/h 25.7 km/h 69 % 0 mm 246 W/m2
13:05 14.6 °C 9.2 °C 1004.6 hPa SW 12.9 km/h 25.7 km/h 70 % 0 mm 251 W/m2
13:10 14.7 °C 9.3 °C 1005 hPa SW 12.9 km/h 20.9 km/h 70 % 0 mm 179 W/m2
13:15 14.6 °C 8.8 °C 1005 hPa SW 12.9 km/h 20.9 km/h 68 % 0 mm 130 W/m2
13:20 14.6 °C 8.3 °C 1005 hPa WSW 14.5 km/h 25.7 km/h 66 % 0 mm 86 W/m2
13:25 14.4 °C 7.7 °C 1005 hPa WSW 16.1 km/h 30.6 km/h 64 % 0 mm 100 W/m2
13:31 14.2 °C 7.7 °C 1005 hPa WSW 17.7 km/h 30.6 km/h 65 % 0 mm 83 W/m2
13:36 14.1 °C 7.6 °C 1005 hPa SW 17.7 km/h 30.6 km/h 65 % 0 mm 90 W/m2
13:41 13.9 °C 7.7 °C 1005.3 hPa SW 17.7 km/h 30.6 km/h 66 % 0 mm 83 W/m2
13:46 13.9 °C 7.9 °C 1005.3 hPa WSW 17.7 km/h 30.6 km/h 67 % 0 mm 104 W/m2
13:51 13.9 °C 7.9 °C 1005.3 hPa WSW 16.1 km/h 30.6 km/h 67 % 0 mm 151 W/m2
13:56 13.9 °C 7.9 °C 1005.3 hPa SW 16.1 km/h 29 km/h 67 % 0 mm 209 W/m2
14:01 13.9 °C 7.9 °C 1005.3 hPa SW 16.1 km/h 29 km/h 67 % 0 mm 137 W/m2
14:06 14 °C 7.9 °C 1005.3 hPa SW 14.5 km/h 24.1 km/h 67 % 0 mm 176 W/m2
14:11 14.1 °C 8.1 °C 1005.6 hPa SW 14.5 km/h 25.7 km/h 67 % 0 mm 265 W/m2
14:16 14.2 °C 8.2 °C 1005.6 hPa SW 12.9 km/h 25.7 km/h 67 % 0 mm 287 W/m2
14:21 14.4 °C 8.3 °C 1005.6 hPa SW 11.3 km/h 19.3 km/h 67 % 0 mm 269 W/m2
14:26 14.6 °C 8.6 °C 1005.6 hPa SW 14.5 km/h 30.6 km/h 67 % 0 mm 290 W/m2
14:31 14.7 °C 8.2 °C 1005.6 hPa SW 17.7 km/h 32.2 km/h 65 % 0 mm 227 W/m2
14:36 14.7 °C 7.9 °C 1005.6 hPa SW 19.3 km/h 33.8 km/h 64 % 0 mm 160 W/m2
14:41 14.6 °C 7.6 °C 1005.6 hPa WSW 19.3 km/h 33.8 km/h 63 % 0 mm 120 W/m2
14:46 14.4 °C 7.7 °C 1005.6 hPa SW 17.7 km/h 30.6 km/h 64 % 0 mm 181 W/m2
14:51 14.4 °C 7.7 °C 1005.6 hPa SW 16.1 km/h 25.7 km/h 64 % 0 mm 301 W/m2
14:56 14.6 °C 8.1 °C 1005.6 hPa SW 12.9 km/h 24.1 km/h 65 % 0 mm 504 W/m2
15:01 15.1 °C 8.3 °C 1005.6 hPa SW 16.1 km/h 32.2 km/h 64 % 0 mm 846 W/m2
15:06 15.5 °C 8.5 °C 1005.6 hPa SW 17.7 km/h 32.2 km/h 63 % 0 mm 427 W/m2
15:11 15.6 °C 8.3 °C 1005.6 hPa SW 16.1 km/h 32.2 km/h 62 % 0 mm 330 W/m2
15:16 15.5 °C 8.2 °C 1006 hPa SW 16.1 km/h 25.7 km/h 62 % 0 mm 315 W/m2
15:21 15.4 °C 8.2 °C 1006 hPa SW 16.1 km/h 25.7 km/h 62 % 0 mm 308 W/m2
15:26 15.4 °C 8.2 °C 1006 hPa SW 16.1 km/h 25.7 km/h 62 % 0 mm 304 W/m2
15:31 15.5 °C 8.2 °C 1006 hPa WSW 16.1 km/h 29 km/h 62 % 0 mm 297 W/m2
15:36 15.3 °C 7.1 °C 1006 hPa SW 17.7 km/h 35.4 km/h 58 % 0 mm 308 W/m2
15:41 15.3 °C 7.1 °C 1006 hPa SW 19.3 km/h 35.4 km/h 58 % 0 mm 318 W/m2
15:46 15.3 °C 7.1 °C 1006 hPa SW 19.3 km/h 32.2 km/h 58 % 0 mm 308 W/m2
15:51 15.4 °C 6.9 °C 1006 hPa SW 17.7 km/h 32.2 km/h 57 % 0 mm 216 W/m2
15:56 15.3 °C 7.1 °C 1006 hPa SW 16.1 km/h 29 km/h 58 % 0 mm 202 W/m2
16:01 15.2 °C 7 °C 1006 hPa SW 16.1 km/h 25.7 km/h 58 % 0 mm 172 W/m2
16:06 15.2 °C 7.5 °C 1006 hPa SW 14.5 km/h 25.7 km/h 60 % 0 mm 162 W/m2
16:11 14.9 °C 7.2 °C 1006.3 hPa SSW 17.7 km/h 37 km/h 60 % 0 mm 174 W/m2
16:16 14.8 °C 7.1 °C 1006.3 hPa SSW 17.7 km/h 37 km/h 60 % 0 mm 195 W/m2
16:22 14.7 °C 6.8 °C 1006.3 hPa SSW 17.7 km/h 32.2 km/h 59 % 0 mm 200 W/m2
16:27 14.6 °C 6.4 °C 1006.3 hPa SW 17.7 km/h 32.2 km/h 58 % 0 mm 214 W/m2
16:32 14.6 °C 6.4 °C 1006.3 hPa SW 17.7 km/h 33.8 km/h 58 % 0 mm 188 W/m2
16:37 14.6 °C 6.4 °C 1006.3 hPa SW 17.7 km/h 32.2 km/h 58 % 0 mm 206 W/m2
16:42 14.4 °C 6.2 °C 1006.3 hPa SSW 17.7 km/h 33.8 km/h 58 % 0 mm 279 W/m2
16:47 14.6 °C 6.4 °C 1006.3 hPa SSW 17.7 km/h 33.8 km/h 58 % 0 mm 392 W/m2
16:52 14.8 °C 6.6 °C 1006.3 hPa SSW 16.1 km/h 30.6 km/h 58 % 0 mm 482 W/m2
16:57 15 °C 6.6 °C 1006.3 hPa SSW 16.1 km/h 30.6 km/h 57 % 0 mm 446 W/m2
17:02 15.4 °C 6.4 °C 1006.3 hPa SSW 16.1 km/h 30.6 km/h 55 % 0 mm 724 W/m2
17:07 15.7 °C 6.4 °C 1006.3 hPa SW 16.1 km/h 30.6 km/h 54 % 0 mm 638 W/m2
17:12 15.9 °C 6.3 °C 1006.3 hPa SSW 17.7 km/h 30.6 km/h 53 % 0 mm 570 W/m2
17:17 16.1 °C 5.9 °C 1006.3 hPa SSW 17.7 km/h 29 km/h 51 % 0 mm 555 W/m2
17:22 16.2 °C 6.1 °C 1006.3 hPa SSW 16.1 km/h 29 km/h 51 % 0 mm 512 W/m2
17:27 16.2 °C 6.1 °C 1006.3 hPa SSW 16.1 km/h 25.7 km/h 51 % 0 mm 487 W/m2
17:32 16.2 °C 6.1 °C 1006.3 hPa SSW 16.1 km/h 30.6 km/h 51 % 0 mm 445 W/m2
17:37 16.2 °C 6.1 °C 1006.3 hPa SSW 14.5 km/h 30.6 km/h 51 % 0 mm 413 W/m2
17:42 16.4 °C 6.8 °C 1006.3 hPa SW 12.9 km/h 32.2 km/h 53 % 0 mm 355 W/m2
17:47 16.3 °C 6.9 °C 1006.3 hPa SW 16.1 km/h 32.2 km/h 54 % 0 mm 327 W/m2
17:52 16.1 °C 7.1 °C 1006.3 hPa SW 16.1 km/h 25.7 km/h 55 % 0 mm 91 W/m2
17:57 15.8 °C 7.3 °C 1006.7 hPa SW 14.5 km/h 24.1 km/h 57 % 0 mm 77 W/m2
18:02 15.5 °C 7.5 °C 1006.7 hPa SW 14.5 km/h 29 km/h 59 % 0 mm 116 W/m2
18:07 15.3 °C 7.6 °C 1006.7 hPa SW 16.1 km/h 29 km/h 60 % 0 mm 153 W/m2
18:12 15.2 °C 7.7 °C 1006.7 hPa SW 14.5 km/h 25.7 km/h 61 % 0 mm 181 W/m2
18:17 15.3 °C 8.1 °C 1006.7 hPa SW 11.3 km/h 19.3 km/h 62 % 0 mm 218 W/m2
18:23 15.4 °C 8.2 °C 1007 hPa SW 12.9 km/h 24.1 km/h 62 % 0 mm 283 W/m2
18:28 15.5 °C 8 °C 1007 hPa SW 16.1 km/h 25.7 km/h 61 % 0 mm 434 W/m2
18:33 15.7 °C 8.2 °C 1007 hPa SW 16.1 km/h 25.7 km/h 61 % 0 mm 346 W/m2
18:38 15.8 °C 8.1 °C 1007 hPa SW 14.5 km/h 22.5 km/h 60 % 0 mm 297 W/m2
18:43 15.8 °C 8.1 °C 1007 hPa SW 14.5 km/h 20.9 km/h 60 % 0 mm 200 W/m2
18:48 15.7 °C 7.9 °C 1007 hPa SSW 16.1 km/h 29 km/h 60 % 0 mm 188 W/m2
18:53 15.6 °C 8.1 °C 1007 hPa SSW 16.1 km/h 29 km/h 61 % 0 mm 146 W/m2
18:58 15.6 °C 8.1 °C 1007 hPa SSW 14.5 km/h 24.1 km/h 61 % 0 mm 158 W/m2
19:03 15.4 °C 8.2 °C 1007 hPa SW 14.5 km/h 24.1 km/h 62 % 0 mm 139 W/m2
19:08 15.4 °C 8.2 °C 1007 hPa SSW 12.9 km/h 24.1 km/h 62 % 0 mm 123 W/m2
19:13 15.4 °C 7.9 °C 1007 hPa SSW 12.9 km/h 24.1 km/h 61 % 0 mm 121 W/m2
19:18 15.4 °C 7.9 °C 1007 hPa SSW 12.9 km/h 24.1 km/h 61 % 0 mm 95 W/m2
19:23 15.3 °C 7.6 °C 1007 hPa SSW 12.9 km/h 24.1 km/h 60 % 0 mm 69 W/m2
19:28 15.3 °C 7.6 °C 1007 hPa SSW 12.9 km/h 24.1 km/h 60 % 0 mm 63 W/m2
19:33 15.2 °C 7.5 °C 1007 hPa SSW 11.3 km/h 20.9 km/h 60 % 0 mm 62 W/m2
19:38 15.2 °C 7.5 °C 1007.3 hPa SSW 9.7 km/h 17.7 km/h 60 % 0 mm 60 W/m2
19:43 15.1 °C 7.4 °C 1007 hPa SSW 8 km/h 16.1 km/h 60 % 0 mm 56 W/m2
19:48 15.1 °C 7.6 °C 1007.3 hPa South 8 km/h 16.1 km/h 61 % 0 mm 60 W/m2
19:53 15.1 °C 7.4 °C 1007.3 hPa SSW 9.7 km/h 16.1 km/h 60 % 0 mm 62 W/m2
19:58 15 °C 7.6 °C 1007.3 hPa South 8 km/h 16.1 km/h 61 % 0 mm 49 W/m2
20:03 15 °C 7.3 °C 1007.3 hPa South 8 km/h 19.3 km/h 60 % 0 mm 40 W/m2
20:08 14.9 °C 7.4 °C 1007.3 hPa South 9.7 km/h 19.3 km/h 61 % 0 mm 37 W/m2
20:14 14.9 °C 7.4 °C 1007.3 hPa SSW 8 km/h 14.5 km/h 61 % 0 mm 35 W/m2
20:19 14.9 °C 7.4 °C 1007.3 hPa SSW 8 km/h 12.9 km/h 61 % 0 mm 35 W/m2
20:24 14.8 °C 7.3 °C 1007.7 hPa SSW 8 km/h 11.3 km/h 61 % 0 mm 30 W/m2
20:29 14.8 °C 7.6 °C 1007.7 hPa SSW 6.4 km/h 11.3 km/h 62 % 0 mm 23 W/m2
20:34 14.7 °C 7.5 °C 1007.7 hPa SSW 4.8 km/h 9.7 km/h 62 % 0 mm 18 W/m2
20:39 14.6 °C 7.4 °C 1007.7 hPa South 6.4 km/h 11.3 km/h 62 % 0 mm 14 W/m2
20:44 14.4 °C 7.4 °C 1007.7 hPa SSE 6.4 km/h 11.3 km/h 63 % 0 mm 12 W/m2
20:49 14.3 °C 7.3 °C 1007.7 hPa SSE 6.4 km/h 11.3 km/h 63 % 0 mm 7 W/m2
20:54 14.2 °C 7.5 °C 1007.7 hPa SSE 8 km/h 11.3 km/h 64 % 0 mm 5 W/m2
20:59 14 °C 7.3 °C 1008 hPa SSE 8 km/h 14.5 km/h 64 % 0 mm 0 W/m2
21:00 14 °C 7.5 °C 1008 hPa SSE 9.7 km/h 14.5 km/h 65 % 0 mm 0 W/m2
21:05 13.8 °C 7.3 °C 1008 hPa SSE 9.7 km/h 17.7 km/h 65 % 0 mm 0 W/m2
21:10 13.7 °C 7.4 °C 1008 hPa SSE 9.7 km/h 17.7 km/h 66 % 0 mm 0 W/m2
21:15 13.6 °C 7.4 °C 1008 hPa SSE 8 km/h 12.9 km/h 66 % 0 mm 0 W/m2
21:20 13.5 °C 7.3 °C 1008 hPa SSE 8 km/h 12.9 km/h 66 % 0 mm 0 W/m2
21:25 13.4 °C 7.4 °C 1008 hPa SSE 8 km/h 16.1 km/h 67 % 0 mm 0 W/m2
21:30 13.3 °C 7.3 °C 1008 hPa SSE 9.7 km/h 16.1 km/h 67 % 0 mm 0 W/m2
21:35 13.1 °C 7.3 °C 1008 hPa SSE 9.7 km/h 14.5 km/h 68 % 0 mm 0 W/m2
21:40 13 °C 7.4 °C 1008.4 hPa SSE 9.7 km/h 14.5 km/h 69 % 0 mm 0 W/m2
21:45 12.9 °C 7.3 °C 1008.4 hPa SSE 9.7 km/h 14.5 km/h 69 % 0 mm 0 W/m2
21:50 12.9 °C 7.3 °C 1008.4 hPa SSE 9.7 km/h 16.1 km/h 69 % 0 mm 0 W/m2
21:56 12.9 °C 7.6 °C 1008.4 hPa SSE 11.3 km/h 19.3 km/h 70 % 0 mm 0 W/m2
22:01 12.9 °C 7.6 °C 1008.4 hPa SSE 11.3 km/h 20.9 km/h 70 % 0 mm 0 W/m2
22:06 12.9 °C 7.6 °C 1008.4 hPa South 11.3 km/h 20.9 km/h 70 % 0 mm 0 W/m2
22:11 12.9 °C 7.6 °C 1008.4 hPa South 11.3 km/h 20.9 km/h 70 % 0 mm 0 W/m2
22:16 13 °C 7.4 °C 1008.4 hPa SSE 11.3 km/h 20.9 km/h 69 % 0 mm 0 W/m2
22:21 13.1 °C 7.6 °C 1008.4 hPa SSE 11.3 km/h 17.7 km/h 69 % 0 mm 0 W/m2
22:26 13 °C 7.4 °C 1008.4 hPa SSE 9.7 km/h 17.7 km/h 69 % 0 mm 0 W/m2
22:31 12.9 °C 7.6 °C 1008.4 hPa SSE 8 km/h 14.5 km/h 70 % 0 mm 0 W/m2
22:36 12.8 °C 7.4 °C 1008.4 hPa SE 8 km/h 12.9 km/h 70 % 0 mm 0 W/m2
22:41 12.7 °C 7.4 °C 1008.4 hPa SE 8 km/h 14.5 km/h 70 % 0 mm 0 W/m2
22:46 12.6 °C 7.5 °C 1008.4 hPa ESE 6.4 km/h 14.5 km/h 71 % 0 mm 0 W/m2
22:51 12.5 °C 7.4 °C 1008.4 hPa ESE 6.4 km/h 11.3 km/h 71 % 0 mm 0 W/m2
22:56 12.4 °C 7.3 °C 1008.4 hPa ESE 4.8 km/h 12.9 km/h 71 % 0 mm 0 W/m2
23:01 12.2 °C 7.3 °C 1008.4 hPa ESE 3.2 km/h 12.9 km/h 72 % 0 mm 0 W/m2
23:06 12.1 °C 7.4 °C 1008.4 hPa ESE 3.2 km/h 11.3 km/h 73 % 0 mm 0 W/m2
23:11 11.9 °C 7.2 °C 1008.4 hPa ESE 3.2 km/h 11.3 km/h 73 % 0 mm 0 W/m2
23:16 11.8 °C 7.3 °C 1008.4 hPa ESE 4.8 km/h 9.7 km/h 74 % 0 mm 0 W/m2
23:21 11.7 °C 7.2 °C 1008.4 hPa SE 4.8 km/h 9.7 km/h 74 % 0 mm 0 W/m2
23:26 11.7 °C 7.2 °C 1008.4 hPa SSE 4.8 km/h 11.3 km/h 74 % 0 mm 0 W/m2
23:31 11.7 °C 7.4 °C 1008.4 hPa SSE 4.8 km/h 12.9 km/h 75 % 0 mm 0 W/m2
23:36 11.7 °C 7.4 °C 1008.4 hPa SE 4.8 km/h 12.9 km/h 75 % 0 mm 0 W/m2
23:41 11.7 °C 7.2 °C 1008.4 hPa SE 8 km/h 12.9 km/h 74 % 0 mm 0 W/m2
23:46 11.7 °C 7.2 °C 1008.4 hPa SE 9.7 km/h 19.3 km/h 74 % 0 mm 0 W/m2
23:52 11.7 °C 7.2 °C 1008.4 hPa SE 9.7 km/h 19.3 km/h 74 % 0 mm 0 W/m2
23:57 11.7 °C 7.2 °C 1008.4 hPa SE 11.3 km/h 17.7 km/h 74 % 0 mm 0 W/m2
Delerius-Weather
Compliments of Weather Underground - 2.25 mb

Data updates at regular intervals.